GW0870 Weather Reports


Display with metric or nautical units.
time (UTC)temp
F
wind
direction
speed
MPH
gust
MPH
rain 1hr
in
rain 24hr
in
rain mn
in
humidity
%
barometer
mb
20260901210052 96 326 0.0 2.0 0.00 0.00 0.00 47 1017.7
20260901204558 96 43 0.0 3.0 0.00 0.00 0.00 49 1017.7
20260901203101 97 0 0.0 3.0 0.00 0.00 0.00 48 1017.8
20260901201551 96 49 1.0 3.0 0.00 0.00 0.00 44 1017.8
20260901200059 96 249 1.0 5.0 0.00 0.00 0.00 44 1017.8
20260901194548 96 0 1.0 3.0 0.00 0.00 0.00 45 1018.0
20260901193108 97 296 0.0 3.0 0.00 0.00 0.00 47 1018.1
20260901191553 97 9 0.0 4.0 0.00 0.00 0.00 47 1018.3
20260901190049 97 20 0.0 2.0 0.00 0.00 0.00 48 1018.5
20260901184548 97 142 0.0 2.0 0.00 0.00 0.00 47 1018.6
20260901183057 96 281 0.0 4.0 0.00 0.00 0.00 52 1018.6
20260901181555 94 215 1.0 5.0 0.00 0.00 0.00 53 1018.7
20260901180054 94 136 1.0 4.0 0.00 0.00 0.00 51 1018.8
20260901174559 93 223 0.0 4.0 0.00 0.00 0.00 54 1018.9
20260901173050 94 22 0.0 5.0 0.00 0.00 0.00 55 1019.0
20260901171604 93 88 0.0 6.0 0.00 0.00 0.00 57 1019.1
20260901170104 93 236 0.0 1.0 0.00 0.00 0.00 57 1019.3
20260901164551 92 15 0.0 3.0 0.00 0.00 0.00 60 1019.5
20260901163104 91 0 1.0 6.0 0.00 0.00 0.00 61 1019.7
20260901161554 92 19 0.0 2.0 0.00 0.00 0.00 65 1019.8
20260901154551 89 134 1.0 4.0 0.00 0.00 0.00 62 1020.0
20260901153059 90 22 2.0 4.0 0.00 0.00 0.00 63 1020.2
20260901151558 89 0 0.0 1.0 0.00 0.00 0.00 68 1020.3
20260901150055 88 0 0.0 1.0 0.00 0.00 0.00 69 1020.5
20260901144552 87 0 0.0 3.0 0.00 0.00 0.00 71 1020.4
20260901143102 85 86 0.0 1.0 0.00 0.00 0.00 72 1020.5
20260901141559 85 26 0.0 2.0 0.00 0.00 0.00 74 1020.4
20260901140120 83 0 0.0 1.0 0.00 0.00 0.00 78 1020.5
20260901134611 82 0 0.0 1.0 0.00 0.00 0.00 82 1020.5
20260901133053 78 0 0.0 0.0 0.00 0.00 0.00 93 1020.3
20260901131600 75 0 0.0 0.0 0.00 0.00 0.00 95 1020.4
20260901130107 73 0 0.0 0.0 0.00 0.00 0.00 95 1020.3
20260901124605 72 0 0.0 0.0 0.00 0.00 0.00 96 1020.4
20260901123101 71 0 0.0 0.0 0.00 0.00 0.00 95 1020.2
20260901121604 70 0 0.0 0.0 0.00 0.00 0.00 95 1020.1
20260901114553 70 0 0.0 0.0 0.00 0.00 0.00 95 1019.8
20260901113117 70 0 0.0 0.0 0.00 0.00 0.00 95 1019.5
20260901111549 69 0 0.0 0.0 0.00 0.00 0.00 95 1019.3
20260901110106 69 0 0.0 0.0 0.00 0.00 0.00 95 1019.1
20260901104601 70 0 0.0 0.0 0.00 0.00 0.00 95 1019.1
20260901103050 69 0 0.0 0.0 0.00 0.00 0.00 94 1018.9
20260901101614 70 0 0.0 0.0 0.00 0.00 0.00 94 1018.9
20260901100106 70 0 0.0 0.0 0.00 0.00 0.00 95 1018.9
20260901094549 70 0 0.0 0.0 0.00 0.00 0.00 94 1018.9
20260901093057 70 0 0.0 0.0 0.00 0.00 0.00 95 1018.8
20260901091555 70 0 0.0 0.0 0.00 0.00 0.00 94 1018.8
20260901090100 71 0 0.0 1.0 0.00 0.00 0.00 94 1018.9
20260901084549 71 0 0.0 0.0 0.00 0.00 0.00 94 1019.0
20260901083056 71 0 0.0 0.0 0.00 0.00 0.00 94 1019.0
20260901081602 71 0 0.0 0.0 0.00 0.00 0.00 94 1019.1
20260901080053 71 0 0.0 0.0 0.00 0.00 0.00 94 1019.2
20260901074549 71 0 0.0 0.0 0.00 0.00 0.00 94 1019.2
20260901073103 72 0 0.0 0.0 0.00 0.00 0.00 94 1019.3
20260901071601 72 0 0.0 0.0 0.00 0.00 0.00 94 1019.4
20260901070103 72 0 0.0 0.0 0.00 0.00 0.00 94 1019.5
20260901064606 72 0 0.0 0.0 0.00 0.00 0.00 94 1019.6
20260901063052 72 0 0.0 0.0 0.00 0.00 0.00 94 1019.6
20260901061600 72 0 0.0 0.0 0.00 0.00 0.00 94 1019.6
20260901060100 72 0 0.0 0.0 0.00 0.00 0.00 94 1019.7
20260901054553 72 0 0.0 0.0 0.00 0.00 0.00 94 1019.7
20260901053107 72 0 0.0 0.0 0.00 0.00 0.00 93 1019.6
20260901051607 73 0 0.0 0.0 0.00 0.00 0.00 93 1019.7
20260901050055 73 0 0.0 0.0 0.00 0.00 0.00 93 1019.8
20260901044615 73 0 0.0 0.0 0.00 0.00 0.00 93 1019.8
20260901043053 73 0 0.0 0.0 0.00 0.00 0.00 93 1019.7
20260901041559 73 0 0.0 0.0 0.00 0.00 0.00 93 1019.7
20260901040059 74 0 0.0 0.0 0.00 0.00 0.00 93 1019.7
20260901034601 74 0 0.0 0.0 0.00 0.00 0.00 92 1019.6
20260901033051 74 0 0.0 0.0 0.00 0.00 0.00 92 1019.6
20260901031558 74 0 0.0 0.0 0.00 0.00 0.00 92 1019.6
20260901030055 75 0 0.0 1.0 0.00 0.00 0.00 92 1019.6
20260901024557 74 0 0.0 0.0 0.00 0.00 0.00 91 1019.6
20260901023050 75 0 0.0 0.0 0.00 0.00 0.00 92 1019.8
20260901021616 75 0 0.0 0.0 0.00 0.00 0.00 91 1019.7
20260901020111 75 0 0.0 0.0 0.00 0.00 0.00 91 1019.6
20260901014557 76 0 0.0 0.0 0.00 0.00 0.00 90 1019.3
20260901013106 76 0 0.0 0.0 0.00 0.00 0.00 90 1019.2
20260901011556 77 0 0.0 0.0 0.00 0.00 0.00 89 1019.1
20260901010101 77 0 0.0 0.0 0.00 0.00 0.00 88 1018.8
20260901004603 78 0 0.0 0.0 0.00 0.00 0.00 87 1018.7
20260901003054 79 0 0.0 0.0 0.00 0.00 0.00 86 1018.6
20260901001558 80 0 0.0 0.0 0.00 0.00 0.00 85 1018.5
20260901000059 81 0 0.0 0.0 0.00 0.00 0.00 82 1018.3
20260831234603 82 0 0.0 0.0 0.00 0.00 0.00 81 1018.2
20260831233052 83 0 0.0 0.0 0.00 0.00 0.00 79 1018.3
20260831231548 85 0 0.0 0.0 0.00 0.00 0.00 76 1018.2
20260831230057 86 0 0.0 0.0 0.00 0.00 0.00 73 1018.4
20260831224554 87 0 0.0 0.0 0.00 0.00 0.00 69 1018.5
20260831223055 90 0 0.0 0.0 0.00 0.00 0.00 63 1018.6
20260831221554 92 0 0.0 0.0 0.00 0.00 0.00 54 1018.6
20260831220110 93 0 0.0 1.0 0.00 0.00 0.00 55 1018.6
20260831214556 95 147 0.0 2.0 0.00 0.00 0.00 53 1018.6
20260831213054 95 0 0.0 2.0 0.00 0.00 0.00 48 1018.8
20260831211605 94 0 1.0 3.0 0.00 0.00 0.00 49 1018.7